Showing default

HYDRA-W, 63490

Orbit data source: Space-Track

HYDRA-W, 63490 is a payload satellite owned by Hydra Space (ES) in SSO that was launched on Sat, 15 Mar 2025 UTC via an FALCON 9 launch vehicle from the Air Force Western Test Range (AFWTR). Payload-class satellites include a variety of spacecraft equipped with specific instruments for various scientific and technological missions. These include communications satellites like Starlink; space stations such as the ISS; scientific satellites like the Hubble; Earth observation satellites from companies like Planet Labs, Umbra, and HawkEye 360; GPS; miniature CubeSats for education and research; and military/defense satellites.

Loading next visibility...
Identifier
63490, 2025-052BL
Orbit
SSO
Country
Flag of ESES / SPN
Related business
Manufacturer
Hydra Space
Mission
Operational Amateur Communications
Bus & Motor
PQ 1.5U, Unknown motor
Mass
0.375 kg wet, 0.375 kg dry
Launch date (UTC)
2025-03-15 (7 months ago)
Launch vehicle
FALCON 9
Launch site
Air Force Western Test Range (AFWTR)
Object type
Payload
Rocket body
Debris
Shape & HBR
Box, 1.1 m
Radar Cross Section
0.006 m², Small (<0.1 m²)

Expand to show TLE details & history
Last TLE update: 1 day ago

TLE from 1 day ago
0 HYDRA-W
1 63490U 25052BL  25287.43871014  .00053772  00000-0  17167-2 0  9996
2 63490  97.4107 180.7929 0006125 295.7320  64.3290 15.32281740 32619
Epoch: 2025-10-14T10:31Z
TLE epoch observation values (Epoch: 2025-10-14T10:31:44.556Z)
Latitude
0.00008°
Longitude
-0.36989°
Altitude
470.298 km
Speed
7.632 km/s
True Right ascension
12h 03m 10s
True Declination
0° 00' 00"
Sunlit
Object was in daylight at epoch
Visualization orbit readout
Latitude
Unknown
Longitude
Unknown
Altitude
Unknown
Speed
Unknown
Apparent Right ascension
Unknown
Apparent Declination
Unknown
Sunlit
N/A
Visualization observer readout
Local Sidereal Time
05:49:05
Azimuth
Unknown
Elevation
Unknown
Doppler factor
Unknown
Orbital elements
Apogee altitude
470.148 km
Perigee altitude
461.764 km
Semi-major axis
6,844.093 km
Eccentricity
0.00061
Inclination
97.4107°
RAAN
180.7929°
Arg. of periapsis
295.732°
True anomaly
64.39228°
Mean anomaly
64.329°
Eccentric anomaly
64.36064°
Mean motion
3.83327 °/min
Orbital period
93.91 mins
BSTAR
0.0017167
Loading maneuver chart data...
Computing Atmospheric mass density...
Loading historical data...
Loading historical data...
Loading historical data...
Loading historical data...
Loading historical data...
Loading historical data...
Loading historical data...

Documentation

Showing up to 5 results
|